[[{"header":{"parameterUnit":"m.s-1","parameterCategory":1,"la1":30.2991,"la2":30.254,"lo1":-89.0895,"lo2":-89.0444,"dy":0.0017,"dx":0.0017,"nx":28,"ny":28,"refTime":"2025-06-09T21:00:00:Z","depth":0,"parameterNumber":2,"parameterNumberName":"U-component_of_WINDS"},"data":[0,0,0,0,0,0,0,0,0,0,0,0,0,0,0,0,0,0,0,0,0,0,0,0,0,0,0,0,0,0,0,0,0,0,0,0,0,0,0,0,0,0,0,0,0,0,0,0,0,0,0,0,0,0,0,0,0,0,2.3569,2.3569,0,2.3595,2.3595,2.3595,2.353,2.3528,2.3526,2.3524,2.3557,2.356,2.3563,0,0,0,0,0,0,0,0,0,0,0,0,0,2.3471,2.3473,2.3569,2.3569,2.3569,2.3595,2.3595,2.3595,2.353,2.3528,2.3525,2.3523,2.3556,2.3559,2.3563,0,0,0,0,0,0,0,0,0,0,0,0,0,2.3507,2.3474,2.3569,2.354,2.3537,2.3594,2.3595,2.3595,2.3531,2.3528,2.3524,2.3522,2.3555,2.3559,2.3563,2.3652,0,0,2.3576,2.3578,0,0,0,0,0,0,0,0,2.3505,2.3511,2.3544,2.3542,2.3539,2.3556,2.3572,2.3615,2.3531,2.3534,2.3524,2.352,2.356,2.3563,2.3575,2.3653,2.3655,2.3577,2.3579,2.3581,2.3582,0,0,0,0,0,0,0,2.3502,2.3509,2.3579,2.3544,2.3542,2.3528,2.353,2.358,2.3564,2.3533,2.3528,2.3532,2.3558,2.3571,2.3575,2.3655,2.3577,2.358,2.3583,2.3585,2.3809,2.3812,0,0,0,0,0,0,2.3503,2.3507,2.3578,2.358,2.3514,2.3532,2.3534,2.3554,2.3563,2.3561,2.3535,2.3529,2.3565,2.3571,2.3576,2.3681,2.3581,2.3585,2.3587,2.3806,2.381,2.3814,0,0,0,0,0,0,2.3501,2.351,2.3577,2.3542,2.355,2.3537,2.356,2.3556,2.3569,2.3564,2.3562,2.3551,2.3563,2.357,2.3633,2.3681,2.3587,2.3591,2.3802,2.3807,2.3812,2.3891,0,0,0,0,0,0,2.3498,2.3509,2.3541,2.3543,2.3552,2.3632,2.3563,2.3559,2.3576,2.3568,2.3579,2.3577,2.3561,2.3627,2.3638,2.3686,2.3594,2.3797,2.3804,2.381,2.3884,2.3898,2.3911,0,0,0,0,0,2.3495,2.3563,2.3543,2.3552,2.3591,2.3635,2.364,2.3618,2.358,2.3613,2.361,2.3577,2.3675,2.3634,2.3645,2.3695,2.3794,2.3802,2.381,2.3878,2.3896,2.391,0,0,0,0,0,0,2.3568,2.3563,2.354,2.3611,2.3623,2.3623,2.3664,2.3637,2.3662,2.3654,2.3628,2.3631,2.37,2.3704,2.3659,2.3782,2.3728,2.3739,2.3777,2.3793,2.3806,2.3804,2.3598,0,0,0,0,0,2.3593,2.3626,2.3621,2.3684,2.3691,2.3677,2.3695,2.3677,2.369,2.3696,2.3697,2.3713,2.3747,2.377,2.3802,2.3885,2.3887,2.3925,2.3938,2.3949,2.3958,2.4004,2.4021,2.3839,2.3839,2.3839,0,0,2.3643,2.3645,2.3668,2.3699,2.3706,2.3744,2.3682,2.3724,2.3753,2.3703,2.3761,2.3764,2.378,2.3854,2.3886,2.3859,2.4009,2.3959,2.3967,2.3971,2.4014,2.4031,2.4046,2.3844,2.3843,2.3842,0,0,2.3755,2.3759,2.3812,2.3821,2.3833,2.3823,2.3836,2.384,2.3839,2.3898,2.3861,2.3896,2.3955,2.3969,2.3983,2.4102,2.4074,2.4113,2.4182,2.4227,2.4242,2.4254,2.4298,2.4313,2.4123,2.4123,2.4123,0,2.3817,2.387,2.3844,2.3888,2.3904,2.3859,2.3914,2.3925,2.3948,2.3961,2.393,2.4003,2.4011,2.4088,2.4117,2.413,2.4146,2.4112,2.4241,2.4254,2.4265,2.4306,2.4323,2.4128,2.4127,2.4127,2.4126,0,2.3947,2.3985,2.4027,2.4047,2.4068,2.4118,2.4102,2.4126,2.4107,2.4102,2.4163,2.4171,2.4203,2.422,2.4203,2.4296,2.4278,2.4245,2.419,2.4288,2.4326,2.4341,2.4134,2.4133,2.4131,2.413,0,0,2.4104,2.411,2.4126,2.4136,2.4146,2.4176,2.4226,2.4255,2.4278,2.4296,2.4338,2.4389,2.4358,2.4375,2.4359,2.4399,2.4494,2.436,2.436,2.4386,2.4598,2.4624,2.4642,2.4475,2.4478,2.448,2.4597,0,2.4215,2.4296,2.4275,2.4358,2.4394,2.4352,2.4396,2.4409,2.4405,2.4437,2.4435,2.4472,2.4428,2.4438,2.4475,2.4474,2.4536,2.4466,2.4516,2.4518,2.4513,2.4662,2.4688,2.4798,2.4612,2.4614,2.4616,0,2.4354,2.4375,2.4461,2.4467,2.4481,2.452,2.4547,2.4577,2.4592,2.4587,2.4606,2.4583,2.4635,2.458,2.4652,2.4604,2.4624,2.4627,2.4631,2.4635,2.4573,2.4671,2.4833,2.485,2.4639,2.4638,2.4636,0,2.4461,2.4512,2.457,2.4579,2.4587,2.4616,2.4622,2.4633,2.4653,2.4677,2.469,2.4721,2.4738,2.4764,2.4751,2.4711,2.4826,2.4769,2.4825,2.4826,2.4851,2.4849,2.5019,2.4863,2.4863,2.4863,2.4862,0,2.4586,2.4641,2.4618,2.4654,2.4715,2.4691,2.4753,2.4753,2.4764,2.4802,2.4769,2.4805,2.4785,2.4821,2.4811,2.4873,2.4881,2.488,2.4877,2.4883,2.4883,2.4896,2.4888,2.4867,2.4866,2.4865,2.4864,0,2.4716,2.4702,2.4763,2.4766,2.4768,2.4813,2.4817,2.4852,2.4846,2.4894,2.4904,2.4897,2.4937,2.4926,2.497,2.4964,2.5043,2.503,2.5037,2.5034,2.5091,2.5086,2.5274,2.5298,2.5127,2.5129,2.513,0,2.4796,2.4837,2.4845,2.4866,2.4873,2.4909,2.4929,2.4908,2.4931,2.4952,2.4985,2.5022,2.505,2.5117,2.5117,2.5152,2.514,2.5203,2.5145,2.515,2.5142,2.5139,2.5144,2.5215,2.5217,2.5219,2.522,0,2.4942,2.4933,2.4962,2.499,2.5014,2.5035,2.5053,2.5074,2.5055,2.5083,2.5122,2.5144,2.5189,2.5227,2.5259,2.5267,2.5242,2.5239,2.5253,2.526,2.5263,2.5263,2.5069,2.5234,2.5233,2.5232,2.5231,2.523,2.505,2.5084,2.5095,2.5129,2.5141,2.5159,2.5192,2.5191,2.5223,2.5256,2.5243,2.529,2.5306,2.5345,2.5358,2.5396,2.5372,2.5393,2.5398,2.5404,2.5412,2.5257,2.5401,2.5401,2.5401,2.54,2.54,0,2.5193,2.5199,2.523,2.5256,2.5284,2.5256,2.5275,2.5301,2.5341,2.5357,2.5386,2.5433,2.547,2.5474,2.5509,2.5539,2.5529,2.5549,2.5547,2.555,2.543,2.5414,2.5557,2.5557,2.5557,2.5557,2.5557,2.5557,2.5271,2.5329,2.5323,2.5387,2.5393,2.5436,2.545,2.5468,2.5481,2.5534,2.5564,2.5566,2.5578,2.5614,2.5648,2.5648,2.5664,2.5689,2.5685,2.5574,2.5558,2.5543,2.5528,2.5692,2.5693,2.5801,2.5802,2.5803]},{"header":{"parameterUnit":"m.s-1","parameterCategory":1,"la1":30.2991,"la2":30.254,"lo1":-89.0895,"lo2":-89.0444,"dy":0.0017,"dx":0.0017,"nx":28,"ny":28,"refTime":"2025-06-09T21:00:00:Z","depth":0,"parameterNumber":3,"parameterNumberName":"V-component_of_WINDS"},"data":[0,0,0,0,0,0,0,0,0,0,0,0,0,0,0,0,0,0,0,0,0,0,0,0,0,0,0,0,0,0,0,0,0,0,0,0,0,0,0,0,0,0,0,0,0,0,0,0,0,0,0,0,0,0,0,0,0,0,5.9626,5.9626,0,5.9665,5.9665,5.9666,5.9659,5.9658,5.9657,5.9657,5.9691,5.9692,5.9694,0,0,0,0,0,0,0,0,0,0,0,0,0,5.954,5.9542,5.9626,5.9626,5.9627,5.9665,5.9665,5.9666,5.9659,5.9658,5.9657,5.9656,5.969,5.9692,5.9694,0,0,0,0,0,0,0,0,0,0,0,0,0,5.9578,5.9542,5.9625,5.9628,5.9628,5.9665,5.9665,5.9666,5.9659,5.9658,5.9657,5.9656,5.969,5.9692,5.9694,5.9728,0,0,5.9701,5.9702,0,0,0,0,0,0,0,0,5.9576,5.9581,5.9627,5.9628,5.9629,5.9656,5.9647,5.9687,5.9659,5.9647,5.9657,5.9655,5.968,5.9683,5.9692,5.973,5.9732,5.9701,5.9703,5.9704,5.9704,0,0,0,0,0,0,0,5.9573,5.9579,5.9641,5.9628,5.9629,5.9625,5.963,5.9655,5.9668,5.9648,5.9648,5.9653,5.968,5.969,5.9693,5.9732,5.9701,5.9703,5.9705,5.9706,5.9801,5.9802,0,0,0,0,0,0,5.957,5.9577,5.964,5.9642,5.9599,5.9628,5.9632,5.9648,5.9668,5.967,5.9654,5.9652,5.9686,5.969,5.9694,5.9736,5.9704,5.9706,5.9707,5.98,5.9801,5.9802,0,0,0,0,0,0,5.9569,5.9576,5.9638,5.961,5.9617,5.963,5.9648,5.9649,5.9659,5.9672,5.9674,5.9662,5.9686,5.9691,5.972,5.9737,5.9707,5.9709,5.9798,5.98,5.9802,5.9819,0,0,0,0,0,0,5.9566,5.9576,5.959,5.961,5.9619,5.9665,5.9649,5.9651,5.9664,5.9663,5.968,5.9682,5.9685,5.9717,5.9723,5.9739,5.9711,5.9797,5.9799,5.9801,5.9817,5.9821,5.9825,0,0,0,0,0,5.9563,5.9592,5.959,5.9598,5.9637,5.9666,5.9671,5.9676,5.9665,5.9679,5.9688,5.9682,5.9734,5.972,5.9727,5.9744,5.9796,5.9798,5.9801,5.9816,5.9821,5.9825,0,0,0,0,0,0,5.957,5.9594,5.9593,5.9629,5.9646,5.9665,5.9682,5.9681,5.9699,5.9697,5.97,5.9704,5.9735,5.9742,5.9726,5.9779,5.9763,5.9767,5.9772,5.9777,5.9781,5.9778,5.9713,0,0,0,0,0,5.9576,5.96,5.9619,5.9649,5.9658,5.9669,5.9682,5.9684,5.9701,5.9707,5.9718,5.9733,5.9753,5.9765,5.9784,5.9819,5.9822,5.9834,5.9838,5.9841,5.9844,5.9863,5.9868,5.9811,5.9811,5.9811,0,0,5.9588,5.9605,5.9619,5.9651,5.9664,5.9687,5.9675,5.9699,5.9716,5.971,5.974,5.9748,5.9765,5.9797,5.9812,5.9805,5.9861,5.9844,5.9847,5.9848,5.9866,5.9872,5.9876,5.9812,5.9812,5.9812,0,0,5.9622,5.9637,5.9664,5.9679,5.97,5.9708,5.9714,5.9734,5.974,5.9771,5.9767,5.9786,5.982,5.9833,5.9843,5.9884,5.9879,5.989,5.991,5.9928,5.9933,5.9937,5.9951,5.9956,5.9893,5.9893,5.9893,0,5.9634,5.967,5.9678,5.9704,5.9718,5.9717,5.9743,5.9756,5.9782,5.9791,5.9783,5.9827,5.9838,5.9873,5.9884,5.9892,5.9899,5.9888,5.9932,5.9936,5.994,5.9953,5.9959,5.9895,5.9894,5.9894,5.9894,0,5.9683,5.9709,5.9728,5.9756,5.9772,5.9798,5.9808,5.9823,5.9825,5.9833,5.9863,5.9877,5.9899,5.9908,5.9908,5.9944,5.9939,5.9931,5.9916,5.9946,5.9959,5.9964,5.9896,5.9896,5.9895,5.9895,0,0,5.972,5.9755,5.9761,5.9774,5.9799,5.9818,5.9843,5.9868,5.988,5.9898,5.9919,5.9949,5.9943,5.9956,5.9958,5.9974,6.0006,5.9965,5.9965,5.9971,6.0045,6.005,6.0056,6.0003,6.0004,6.0005,6.0044,0,5.9756,5.9805,5.9813,5.9854,5.9878,5.9878,5.9901,5.9917,5.9926,5.9945,5.9954,5.9975,5.9966,5.9973,5.999,5.9998,6.002,5.9996,6.0021,6.0022,6.0017,6.0063,6.0068,6.0104,6.0049,6.005,6.005,0,5.9804,5.9827,5.9871,5.9894,5.9904,5.9925,5.9948,5.9967,5.9986,5.9991,6.0006,6.0007,6.0032,6.0017,6.0052,6.0035,6.0046,6.0052,6.0053,6.0055,6.0037,6.0065,6.0116,6.0121,6.0058,6.0057,6.0057,0,5.9827,5.9868,5.99,5.9911,5.9939,5.9953,5.9965,5.9983,5.9997,6.0017,6.0026,6.0048,6.006,6.0076,6.0082,6.007,6.0116,6.0101,6.012,6.012,6.0129,6.0128,6.0181,6.0137,6.0137,6.0137,6.0136,0,5.9866,5.9893,5.9911,5.9931,5.9961,5.997,5.9999,6.001,6.0027,6.0048,6.0048,6.0067,6.0075,6.0094,6.0099,6.0127,6.0132,6.0136,6.0137,6.0136,6.0135,6.0142,6.014,6.0138,6.0138,6.0137,6.0137,0,5.9895,5.9909,5.9944,5.9969,5.9975,5.9997,6.0016,6.0035,6.0044,6.0071,6.0077,6.0091,6.0115,6.0123,6.015,6.0154,6.0186,6.0185,6.0181,6.0181,6.0199,6.0197,6.0258,6.0266,6.0217,6.0217,6.0218,0,5.9919,5.994,5.9968,5.9983,5.9997,6.0021,6.0037,6.0046,6.0062,6.0086,6.0102,6.0126,6.0146,6.0183,6.0194,6.0216,6.0215,6.0235,6.0218,6.0216,6.0215,6.0213,6.0215,6.0237,6.0238,6.0238,6.0238,0,5.9959,5.9965,5.9989,6.0016,6.0036,6.0056,6.0076,6.0088,6.0101,6.0118,6.0144,6.016,6.019,6.0213,6.0236,6.0245,6.0244,6.0244,6.025,6.0248,6.0245,6.0247,6.0189,6.0242,6.0242,6.0242,6.0241,6.0241,5.9986,6.0005,6.0029,6.0056,6.0073,6.0092,6.0111,6.0124,6.0147,6.0174,6.0178,6.0205,6.0224,6.0254,6.0265,6.0286,6.028,6.0288,6.029,6.0291,6.0293,6.0243,6.029,6.029,6.0289,6.0289,6.0289,0,6.0026,6.0042,6.0067,6.0097,6.0118,6.0118,6.014,6.0157,6.0182,6.0201,6.0221,6.0251,6.0274,6.0289,6.0312,6.0325,6.0325,6.0331,6.033,6.0332,6.0297,6.029,6.0331,6.0331,6.0331,6.0331,6.0331,6.0331,6.0049,6.0083,6.0093,6.0134,6.0149,6.0179,6.0192,6.0209,6.0224,6.0258,6.0279,6.0289,6.0306,6.0331,6.0352,6.0355,6.0363,6.037,6.0373,6.0339,6.0335,6.033,6.0324,6.0372,6.0372,6.0406,6.0407,6.0407]}]]